CZ-3C DEB, 40834

Orbit data source: Space-Track

CZ-3C DEB, 40834 is space debris in HEO originally from a launch on Sun, 31 Oct 2010 UTC launched from the Xichang Space Center, China (XSC). Debris objects in space refer to the collection of defunct objects orbiting the Earth. Examples of debris include non-operational satellites, rocket bodies, and fragments generated from explosions, collisions, or faulty payload assembly.

Loading next visibility...
Identifier
40834, 2010-057BB
Orbit
HEO
Country
Flag of CNCN / PRC
Related business
Manufacturer
CALT
Mission
Spacecraft
Bus & Motor
Unknown
Mass
Unknown
Launch date (UTC)
2010-10-31 (15 years ago)
Launch vehicle
Unknown
Launch site
Xichang Space Center, China (XSC)
Object type
Payload
Rocket body
Debris
Shape & HBR
Unknown shape, 0.3 m
Radar Cross Section
Small (<0.1 m²)

Expand to show TLE details & history
Last TLE update: 1 day ago

TLE from 1 day ago
0 CZ-3C DEB
1 40834U 10057BB  25347.62825347  .00000073  00000-0  15093-2 0  9990
2 40834  19.8876 202.3264 7157677 335.2991   3.0457  2.19668373 86436
Epoch: 2025-12-13T15:04Z
TLE epoch observation values (Epoch: 2025-12-13T15:04:41.099Z)
Latitude
0.00061°
Longitude
-106.31994°
Altitude
1,029.222 km
Speed
9.574 km/s
True Right ascension
13h 29m 36s
True Declination
0° 00' 02"
Sunlit
Object was in daylight at epoch
Visualization orbit readout
Latitude
Unknown
Longitude
Unknown
Altitude
Unknown
Speed
Unknown
Apparent Right ascension
Unknown
Apparent Declination
Unknown
Sunlit
N/A
Visualization observer readout
Local Sidereal Time
17:54:42
Azimuth
Unknown
Elevation
Unknown
Doppler factor
Unknown
Orbital elements
Apogee altitude
36,518.494 km
Perigee altitude
728.075 km
Semi-major axis
25,001.421 km
Eccentricity
0.71577
Inclination
19.8876°
RAAN
202.3264°
Arg. of periapsis
335.2991°
True anomaly
25.59689°
Mean anomaly
3.0457°
Eccentric anomaly
10.56502°
Mean motion
0.54903 °/min
Orbital period
655.7 mins
BSTAR
0.0015093
Loading maneuver chart data...
Computing Atmospheric mass density...
Loading historical data...
Loading historical data...
Loading historical data...
Loading historical data...
Loading historical data...
Loading historical data...
Loading historical data...

Documentation

Showing up to 5 results
|